TimeCDT,TemperatureF,Dew PointF,Humidity,Sea Level PressureIn,VisibilityMPH,Wind Direction,Wind SpeedMPH,Gust SpeedMPH,PrecipitationIn,Events,Conditions,WindDirDegrees,DateUTC
12:53 AM,75.9,71.1,85,30.06,10.0,NE,8.1,-,N/A,,Overcast,50,2013-09-18 05:53:00
1:53 AM,77.0,72.0,84,30.06,10.0,Variable,4.6,-,N/A,,Overcast,0,2013-09-18 06:53:00
2:53 AM,77.0,72.0,84,30.05,10.0,East,6.9,-,N/A,,Mostly Cloudy,80,2013-09-18 07:53:00
3:53 AM,75.9,71.1,85,30.04,10.0,ENE,8.1,-,N/A,,Partly Cloudy,70,2013-09-18 08:53:00
4:53 AM,75.9,71.1,85,30.04,10.0,ENE,8.1,-,N/A,,Partly Cloudy,70,2013-09-18 09:53:00
5:07 AM,75.2,71.6,89,30.05,10.0,ENE,4.6,-,N/A,,Mostly Cloudy,70,2013-09-18 10:07:00
5:53 AM,75.0,70.0,84,30.06,10.0,East,9.2,-,N/A,,Mostly Cloudy,80,2013-09-18 10:53:00
6:48 AM,75.2,69.8,83,30.06,10.0,East,10.4,18.4,N/A,,Mostly Cloudy,80,2013-09-18 11:48:00
6:53 AM,75.0,70.0,84,30.07,10.0,East,6.9,18.4,N/A,,Scattered Clouds,80,2013-09-18 11:53:00
7:53 AM,75.9,70.0,82,30.08,10.0,East,9.2,18.4,N/A,,Scattered Clouds,80,2013-09-18 12:53:00
8:53 AM,78.1,71.1,79,30.09,10.0,East,10.4,17.3,N/A,,Clear,90,2013-09-18 13:53:00
9:48 AM,80.6,71.6,74,30.09,10.0,East,9.2,-,N/A,,Mostly Cloudy,100,2013-09-18 14:48:00
9:53 AM,80.1,71.1,74,30.09,10.0,East,11.5,17.3,N/A,,Mostly Cloudy,100,2013-09-18 14:53:00
10:53 AM,80.1,71.1,74,30.09,10.0,East,9.2,-,N/A,,Mostly Cloudy,90,2013-09-18 15:53:00
11:00 AM,80.6,71.6,74,30.09,10.0,East,8.1,-,N/A,,Mostly Cloudy,100,2013-09-18 16:00:00
11:53 AM,82.9,72.0,69,30.08,10.0,Calm,Calm,-,N/A,,Mostly Cloudy,0,2013-09-18 16:53:00
12:53 PM,84.9,72.0,65,30.07,10.0,NE,5.8,-,N/A,,Mostly Cloudy,50,2013-09-18 17:53:00
1:53 PM,87.1,72.0,61,30.05,10.0,Variable,4.6,-,N/A,,Mostly Cloudy,0,2013-09-18 18:53:00
2:53 PM,84.9,71.1,63,30.04,10.0,Variable,4.6,-,N/A,,Mostly Cloudy,0,2013-09-18 19:53:00
3:42 PM,78.8,71.6,78,30.03,1.8,East,10.4,19.6,0.03,Rain,Heavy Rain,90,2013-09-18 20:42:00
3:53 PM,78.1,72.0,81,30.03,6.0,Calm,Calm,-,0.23,Rain,Rain,0,2013-09-18 20:53:00
4:53 PM,81.0,73.9,79,30.03,10.0,ESE,3.5,-,0.00,,Mostly Cloudy,120,2013-09-18 21:53:00
5:53 PM,81.0,73.0,77,30.03,10.0,Calm,Calm,-,N/A,,Partly Cloudy,0,2013-09-18 22:53:00
6:53 PM,80.1,73.9,81,30.03,10.0,Calm,Calm,-,0.00,,Mostly Cloudy,0,2013-09-18 23:53:00
7:53 PM,79.0,73.9,84,30.03,10.0,Calm,Calm,-,N/A,,Mostly Cloudy,0,2013-09-19 00:53:00
8:53 PM,77.0,73.0,88,30.06,10.0,Calm,Calm,-,N/A,,Clear,0,2013-09-19 01:53:00
9:53 PM,78.1,73.0,84,30.06,10.0,East,4.6,-,N/A,,Clear,90,2013-09-19 02:53:00
10:53 PM,78.1,72.0,81,30.05,10.0,ENE,4.6,-,N/A,,Clear,70,2013-09-19 03:53:00
11:53 PM,78.1,72.0,81,30.05,10.0,ENE,6.9,-,N/A,,Clear,70,2013-09-19 04:53:00